Time,TemperatureF,DewpointF,PressureIn,WindDirection,WindDirectionDegrees,WindSpeedMPH,WindSpeedGustMPH,Humidity,HourlyPrecipIn,Conditions,Clouds,dailyrainin,SoftwareType,DateUTC
2013-01-25 00:02:00,11.1,0.0,30.27,SE,124,8.1,8.1,0,0.00,,---,0.00,VWS V14.01,2013-01-25 06:02:00,
2013-01-25 00:07:00,11.1,0.0,30.27,ESE,121,10.7,10.7,0,0.00,,---,0.00,VWS V14.01,2013-01-25 06:07:00,
2013-01-25 00:12:00,11.1,0.0,30.27,SE,141,8.1,8.1,0,0.00,,---,0.00,VWS V14.01,2013-01-25 06:12:00,
2013-01-25 00:17:00,11.1,0.0,30.27,East,98,7.2,12.5,0,0.00,,---,0.00,VWS V14.01,2013-01-25 06:17:00,
2013-01-25 00:22:00,11.1,0.0,30.27,SE,132,7.2,9.8,0,0.00,,---,0.00,VWS V14.01,2013-01-25 06:22:00,
2013-01-25 00:27:00,11.1,0.0,30.27,ESE,107,7.2,8.1,0,0.00,,---,0.00,VWS V14.01,2013-01-25 06:27:00,
2013-01-25 00:32:00,11.1,0.0,30.27,ESE,106,7.2,10.7,0,0.00,,---,0.00,VWS V14.01,2013-01-25 06:32:00,
2013-01-25 00:37:00,11.1,0.0,30.27,East,101,5.4,6.3,0,0.00,,---,0.00,VWS V14.01,2013-01-25 06:37:00,
2013-01-25 00:42:00,11.1,0.0,30.24,NE,55,5.4,7.2,0,0.00,,---,0.00,VWS V14.01,2013-01-25 06:42:00,
2013-01-25 00:47:00,11.1,0.0,30.24,ENE,75,6.3,8.1,0,0.00,,---,0.00,VWS V14.01,2013-01-25 06:47:00,
2013-01-25 00:52:00,11.1,0.0,30.24,ENE,73,10.7,12.5,0,0.00,,---,0.00,VWS V14.01,2013-01-25 06:52:00,
2013-01-25 00:57:00,11.1,0.0,30.24,SSE,148,9.8,9.8,0,0.00,,---,0.00,VWS V14.01,2013-01-25 06:57:00,
2013-01-25 01:02:00,11.1,0.0,30.24,ENE,65,6.3,8.1,0,0.00,,---,0.00,VWS V14.01,2013-01-25 07:02:00,
2013-01-25 01:07:00,11.1,0.0,30.24,SE,132,9.8,9.8,0,0.00,,---,0.00,VWS V14.01,2013-01-25 07:07:00,
2013-01-25 01:12:00,11.1,0.0,30.24,ENE,64,10.7,10.7,0,0.00,,---,0.00,VWS V14.01,2013-01-25 07:12:00,
2013-01-25 01:17:00,11.1,0.0,30.24,NNE,23,7.2,10.7,0,0.00,,---,0.00,VWS V14.01,2013-01-25 07:17:00,
2013-01-25 01:22:00,11.1,0.0,30.24,SE,140,5.4,5.4,0,0.00,,---,0.00,VWS V14.01,2013-01-25 07:22:00,
2013-01-25 01:27:00,11.1,0.0,30.24,SE,132,12.5,12.5,0,0.00,,---,0.00,VWS V14.01,2013-01-25 07:27:00,
2013-01-25 01:32:00,11.1,0.0,30.24,ESE,119,11.6,12.5,0,0.00,,---,0.00,VWS V14.01,2013-01-25 07:32:00,
2013-01-25 01:37:00,11.1,0.0,30.24,ENE,68,11.6,12.5,0,0.00,,---,0.00,VWS V14.01,2013-01-25 07:37:00,
2013-01-25 01:42:00,11.1,0.0,30.21,SE,126,8.1,10.7,0,0.00,,---,0.00,VWS V14.01,2013-01-25 07:42:00,
2013-01-25 01:47:00,11.1,0.0,30.21,ESE,118,5.4,11.6,0,0.00,,---,0.00,VWS V14.01,2013-01-25 07:47:00,
2013-01-25 01:52:00,11.1,0.0,30.21,ESE,116,11.6,11.6,0,0.00,,---,0.00,VWS V14.01,2013-01-25 07:52:00,
2013-01-25 01:57:00,11.1,0.0,30.21,ESE,114,5.4,9.8,0,0.00,,---,0.00,VWS V14.01,2013-01-25 07:57:00,
2013-01-25 02:02:00,11.1,0.0,30.21,ESE,119,7.2,10.7,0,0.00,,---,0.00,VWS V14.01,2013-01-25 08:02:00,
2013-01-25 02:07:00,11.1,0.0,30.21,ESE,123,4.5,7.2,0,0.00,,---,0.00,VWS V14.01,2013-01-25 08:07:00,
2013-01-25 02:12:00,11.1,0.0,30.21,ESE,123,10.7,10.7,0,0.00,,---,0.00,VWS V14.01,2013-01-25 08:12:00,
2013-01-25 02:17:00,11.1,0.0,30.21,NE,56,6.3,11.6,0,0.00,,---,0.00,VWS V14.01,2013-01-25 08:17:00,
2013-01-25 02:22:00,11.1,0.0,30.21,SE,124,5.4,7.2,0,0.00,,---,0.00,VWS V14.01,2013-01-25 08:22:00,
2013-01-25 02:27:00,11.1,0.0,30.21,East,80,6.3,6.3,0,0.00,,---,0.00,VWS V14.01,2013-01-25 08:27:00,
2013-01-25 02:32:00,11.1,0.0,30.21,SE,124,8.1,10.7,0,0.00,,---,0.00,VWS V14.01,2013-01-25 08:32:00,
2013-01-25 02:37:00,11.1,0.0,30.21,ESE,110,10.7,12.5,0,0.00,,---,0.00,VWS V14.01,2013-01-25 08:37:00,
2013-01-25 02:42:00,11.1,0.0,30.18,ESE,110,8.1,8.1,0,0.00,,---,0.00,VWS V14.01,2013-01-25 08:42:00,
2013-01-25 02:47:00,11.1,0.0,30.18,East,84,9.8,10.7,0,0.00,,---,0.00,VWS V14.01,2013-01-25 08:47:00,
2013-01-25 02:52:00,11.1,0.0,30.18,SSE,148,7.2,8.1,0,0.00,,---,0.00,VWS V14.01,2013-01-25 08:52:00,
2013-01-25 02:57:00,11.1,0.0,30.18,NE,51,5.4,5.4,0,0.00,,---,0.00,VWS V14.01,2013-01-25 08:57:00,
2013-01-25 03:02:00,11.1,0.0,30.18,ENE,61,7.2,11.6,0,0.00,,---,0.00,VWS V14.01,2013-01-25 09:02:00,
2013-01-25 03:07:00,11.1,0.0,30.18,ENE,65,8.1,8.1,0,0.00,,---,0.00,VWS V14.01,2013-01-25 09:07:00,
2013-01-25 03:12:00,11.1,0.0,30.18,ENE,77,6.3,8.1,0,0.00,,---,0.00,VWS V14.01,2013-01-25 09:12:00,
2013-01-25 03:17:00,11.1,0.0,30.18,ESE,107,10.7,10.7,0,0.00,,---,0.00,VWS V14.01,2013-01-25 09:17:00,
2013-01-25 03:22:00,11.1,0.0,30.18,SE,133,8.1,8.1,0,0.00,,---,0.00,VWS V14.01,2013-01-25 09:22:00,
2013-01-25 03:27:00,11.1,0.0,30.15,SE,137,9.8,9.8,0,0.00,,---,0.00,VWS V14.01,2013-01-25 09:27:00,
2013-01-25 03:32:00,11.1,0.0,30.15,ESE,119,9.8,9.8,0,0.00,,---,0.00,VWS V14.01,2013-01-25 09:32:00,
2013-01-25 03:37:00,11.1,0.0,30.15,SE,126,7.2,7.2,0,0.00,,---,0.00,VWS V14.01,2013-01-25 09:37:00,
2013-01-25 03:42:00,11.1,0.0,30.15,ESE,121,7.2,7.2,0,0.00,,---,0.00,VWS V14.01,2013-01-25 09:42:00,
2013-01-25 03:47:00,11.1,0.0,30.15,East,95,5.4,9.8,0,0.00,,---,0.00,VWS V14.01,2013-01-25 09:47:00,
2013-01-25 03:52:00,11.1,0.0,30.15,SE,138,12.5,12.5,0,0.00,,---,0.00,VWS V14.01,2013-01-25 09:52:00,
2013-01-25 03:57:00,11.1,0.0,30.15,ESE,116,6.3,10.7,0,0.00,,---,0.00,VWS V14.01,2013-01-25 09:57:00,
2013-01-25 04:02:00,11.1,0.0,30.15,ESE,118,6.3,8.1,0,0.00,,---,0.00,VWS V14.01,2013-01-25 10:02:00,
2013-01-25 04:07:00,11.1,0.0,30.15,ESE,109,8.1,8.1,0,0.00,,---,0.00,VWS V14.01,2013-01-25 10:07:00,
2013-01-25 04:12:00,11.1,0.0,30.15,SE,124,8.1,9.8,0,0.00,,---,0.00,VWS V14.01,2013-01-25 10:12:00,
2013-01-25 04:17:00,11.1,0.0,30.15,SE,127,10.7,10.7,0,0.00,,---,0.00,VWS V14.01,2013-01-25 10:17:00,
2013-01-25 04:22:00,11.1,0.0,30.15,SE,128,10.7,10.7,0,0.00,,---,0.00,VWS V14.01,2013-01-25 10:22:00,
2013-01-25 04:27:00,11.1,0.0,30.15,SE,125,8.1,9.8,0,0.00,,---,0.00,VWS V14.01,2013-01-25 10:27:00,
2013-01-25 04:32:00,11.1,0.0,30.15,SE,145,9.8,9.8,0,0.00,,---,0.00,VWS V14.01,2013-01-25 10:32:00,
2013-01-25 04:37:00,11.1,0.0,30.15,SSE,147,12.5,12.5,0,0.00,,---,0.00,VWS V14.01,2013-01-25 10:37:00,
2013-01-25 04:42:00,11.1,0.0,30.15,SE,125,8.1,8.1,0,0.00,,---,0.00,VWS V14.01,2013-01-25 10:42:00,
2013-01-25 04:47:00,11.1,0.0,30.15,SE,133,9.8,10.7,0,0.00,,---,0.00,VWS V14.01,2013-01-25 10:47:00,
2013-01-25 04:52:00,11.1,0.0,30.15,SE,127,8.1,9.8,0,0.00,,---,0.00,VWS V14.01,2013-01-25 10:52:00,
2013-01-25 04:57:00,11.1,0.0,30.15,SE,127,11.6,11.6,0,0.00,,---,0.00,VWS V14.01,2013-01-25 10:57:00,
2013-01-25 05:02:00,11.1,0.0,30.15,ESE,105,11.6,11.6,0,0.00,,---,0.00,VWS V14.01,2013-01-25 11:02:00,
2013-01-25 05:07:00,11.1,0.0,30.15,SE,132,6.3,6.3,0,0.00,,---,0.00,VWS V14.01,2013-01-25 11:07:00,
2013-01-25 05:12:00,11.1,0.0,30.15,SSE,152,10.7,11.6,0,0.00,,---,0.00,VWS V14.01,2013-01-25 11:12:00,
2013-01-25 05:17:00,11.1,0.0,30.15,SE,135,10.7,11.6,0,0.00,,---,0.00,VWS V14.01,2013-01-25 11:17:00,
2013-01-25 05:22:00,11.1,0.0,30.15,SE,141,11.6,11.6,0,0.00,,---,0.00,VWS V14.01,2013-01-25 11:22:00,
2013-01-25 05:27:00,11.1,0.0,30.12,SSE,150,10.7,10.7,0,0.00,,---,0.00,VWS V14.01,2013-01-25 11:27:00,
2013-01-25 05:32:00,11.1,0.0,30.12,SE,130,11.6,14.3,0,0.00,,---,0.00,VWS V14.01,2013-01-25 11:32:00,
2013-01-25 05:37:00,11.1,0.0,30.12,SE,132,9.8,10.7,0,0.00,,---,0.00,VWS V14.01,2013-01-25 11:37:00,
2013-01-25 05:42:00,11.1,0.0,30.12,SE,136,9.8,11.6,0,0.00,,---,0.00,VWS V14.01,2013-01-25 11:42:00,
2013-01-25 05:47:00,11.1,0.0,30.12,SSE,147,8.1,10.7,0,0.00,,---,0.00,VWS V14.01,2013-01-25 11:47:00,
2013-01-25 05:52:00,11.1,0.0,30.12,SE,145,8.1,8.1,0,0.00,,---,0.00,VWS V14.01,2013-01-25 11:52:00,
2013-01-25 05:57:00,11.1,0.0,30.15,SE,135,8.1,8.1,0,0.00,,---,0.00,VWS V14.01,2013-01-25 11:57:00,
2013-01-25 06:02:00,11.1,0.0,30.15,SSE,149,6.3,6.3,0,0.00,,---,0.00,VWS V14.01,2013-01-25 12:02:00,
2013-01-25 06:07:00,11.1,0.0,30.15,SE,136,6.3,6.3,0,0.00,,---,0.00,VWS V14.01,2013-01-25 12:07:00,
2013-01-25 06:12:00,11.1,0.0,30.15,SE,136,5.4,5.4,0,0.00,,---,0.00,VWS V14.01,2013-01-25 12:12:00,
2013-01-25 06:17:00,11.1,0.0,30.15,SE,136,6.3,6.3,0,0.00,,---,0.00,VWS V14.01,2013-01-25 12:17:00,
2013-01-25 06:22:00,11.1,0.0,30.15,SE,136,5.4,5.4,0,0.00,,---,0.00,VWS V14.01,2013-01-25 12:22:00,
2013-01-25 06:27:00,11.1,0.0,30.12,SE,136,7.2,7.2,0,0.00,,---,0.00,VWS V14.01,2013-01-25 12:27:00,
2013-01-25 06:32:00,11.1,0.0,30.12,SE,136,8.1,8.1,0,0.00,,---,0.00,VWS V14.01,2013-01-25 12:32:00,
2013-01-25 06:37:00,11.1,0.0,30.12,SE,126,7.2,7.2,0,0.00,,---,0.00,VWS V14.01,2013-01-25 12:37:00,
2013-01-25 06:42:00,11.1,0.0,30.15,SE,135,5.4,5.4,0,0.00,,---,0.00,VWS V14.01,2013-01-25 12:42:00,
2013-01-25 06:47:00,11.1,0.0,30.15,SE,129,8.1,9.8,0,0.00,,---,0.00,VWS V14.01,2013-01-25 12:47:00,
2013-01-25 06:52:00,11.1,0.0,30.15,SE,144,5.4,7.2,0,0.00,,---,0.00,VWS V14.01,2013-01-25 12:52:00,
2013-01-25 06:57:00,11.1,0.0,30.12,SE,134,7.2,7.2,0,0.00,,---,0.00,VWS V14.01,2013-01-25 12:57:00,
2013-01-25 07:02:00,11.1,0.0,30.12,SE,143,7.2,7.2,0,0.00,,---,0.00,VWS V14.01,2013-01-25 13:02:00,
2013-01-25 07:07:00,11.1,0.0,30.12,SSE,150,7.2,8.1,0,0.00,,---,0.00,VWS V14.01,2013-01-25 13:07:00,
2013-01-25 07:12:00,11.1,0.0,30.12,SE,139,6.3,8.1,0,0.00,,---,0.00,VWS V14.01,2013-01-25 13:12:00,
2013-01-25 07:17:00,11.1,0.0,30.12,SE,136,8.9,8.9,0,0.00,,---,0.00,VWS V14.01,2013-01-25 13:17:00,
2013-01-25 07:22:00,11.1,0.0,30.12,SSE,147,8.1,8.1,0,0.00,,---,0.00,VWS V14.01,2013-01-25 13:22:00,
2013-01-25 07:27:00,11.1,0.0,30.12,SE,144,8.1,10.7,0,0.00,,---,0.00,VWS V14.01,2013-01-25 13:27:00,
2013-01-25 07:32:00,11.1,0.0,30.12,SE,135,6.3,8.1,0,0.00,,---,0.00,VWS V14.01,2013-01-25 13:32:00,
2013-01-25 07:37:00,11.1,0.0,30.12,SSE,147,9.8,9.8,0,0.00,,---,0.00,VWS V14.01,2013-01-25 13:37:00,
2013-01-25 07:42:00,11.1,0.0,30.12,SE,137,5.4,8.1,0,0.00,,---,0.00,VWS V14.01,2013-01-25 13:42:00,
2013-01-25 07:47:00,11.1,0.0,30.12,SSE,149,8.9,8.9,0,0.00,,---,0.00,VWS V14.01,2013-01-25 13:47:00,
2013-01-25 07:52:00,11.1,0.0,30.12,SE,146,6.3,8.1,0,0.00,,---,0.00,VWS V14.01,2013-01-25 13:52:00,
2013-01-25 07:57:00,11.1,0.0,30.09,South,169,9.8,9.8,0,0.00,,---,0.00,VWS V14.01,2013-01-25 13:57:00,
2013-01-25 08:02:00,11.1,0.0,30.09,SSE,157,6.3,6.3,0,0.00,,---,0.00,VWS V14.01,2013-01-25 14:02:00,
2013-01-25 08:07:00,11.1,0.0,30.09,SSE,160,8.1,8.1,0,0.00,,---,0.00,VWS V14.01,2013-01-25 14:07:00,
2013-01-25 08:12:00,11.1,0.0,30.09,SSE,161,8.9,8.9,0,0.00,,---,0.00,VWS V14.01,2013-01-25 14:12:00,
2013-01-25 08:17:00,11.1,0.0,30.09,SSE,156,8.1,8.1,0,0.00,,---,0.00,VWS V14.01,2013-01-25 14:17:00,
2013-01-25 08:22:00,11.1,0.0,30.09,SE,146,10.7,10.7,0,0.00,,---,0.00,VWS V14.01,2013-01-25 14:22:00,
2013-01-25 08:27:00,11.1,0.0,30.09,SSE,160,8.1,8.1,0,0.00,,---,0.00,VWS V14.01,2013-01-25 14:27:00,
2013-01-25 08:32:00,11.1,0.0,30.09,SE,137,10.7,10.7,0,0.00,,---,0.00,VWS V14.01,2013-01-25 14:32:00,
2013-01-25 08:37:00,11.1,0.0,30.09,SE,146,11.6,11.6,0,0.00,,---,0.00,VWS V14.01,2013-01-25 14:37:00,
2013-01-25 08:42:00,11.1,0.0,30.09,SE,145,10.7,10.7,0,0.00,,---,0.00,VWS V14.01,2013-01-25 14:42:00,
2013-01-25 08:47:00,11.1,0.0,30.09,SE,141,8.1,15.2,0,0.00,,---,0.00,VWS V14.01,2013-01-25 14:47:00,
2013-01-25 08:52:00,11.1,0.0,30.09,SE,141,12.5,12.5,0,0.00,,---,0.00,VWS V14.01,2013-01-25 14:52:00,
2013-01-25 08:57:00,11.1,0.0,30.09,SSE,152,8.1,10.7,0,0.00,,---,0.00,VWS V14.01,2013-01-25 14:57:00,
2013-01-25 09:02:00,11.1,0.0,30.09,SSE,159,8.1,8.1,0,0.00,,---,0.00,VWS V14.01,2013-01-25 15:02:00,
2013-01-25 09:07:00,11.1,0.0,30.09,SSE,157,12.5,12.5,0,0.00,,---,0.00,VWS V14.01,2013-01-25 15:07:00,
2013-01-25 09:12:00,11.1,0.0,30.09,SSE,160,5.4,7.2,0,0.00,,---,0.00,VWS V14.01,2013-01-25 15:12:00,
2013-01-25 09:17:00,11.1,0.0,30.09,SE,139,10.7,11.6,0,0.00,,---,0.00,VWS V14.01,2013-01-25 15:17:00,
2013-01-25 09:22:00,11.1,0.0,30.09,SSE,162,8.1,9.8,0,0.00,,---,0.00,VWS V14.01,2013-01-25 15:22:00,
2013-01-25 09:27:00,11.1,0.0,30.09,South,187,6.3,6.3,0,0.00,,---,0.00,VWS V14.01,2013-01-25 15:27:00,
2013-01-25 09:32:00,11.1,0.0,30.09,SSE,157,8.1,8.1,0,0.00,,---,0.00,VWS V14.01,2013-01-25 15:32:00,
2013-01-25 09:37:00,11.1,0.0,30.09,South,169,6.3,11.6,0,0.00,,---,0.00,VWS V14.01,2013-01-25 15:37:00,
2013-01-25 09:42:00,11.1,0.0,30.09,SSE,160,5.4,5.4,0,0.00,,---,0.00,VWS V14.01,2013-01-25 15:42:00,
2013-01-25 09:47:00,11.1,0.0,30.09,SSW,203,0.0,5.4,0,0.00,,---,0.00,VWS V14.01,2013-01-25 15:47:00,
2013-01-25 09:52:00,11.1,0.0,30.09,South,179,5.4,8.1,0,0.00,,---,0.00,VWS V14.01,2013-01-25 15:52:00,
2013-01-25 09:57:00,11.1,0.0,30.09,SSE,159,10.7,12.5,0,0.00,,---,0.00,VWS V14.01,2013-01-25 15:57:00,
2013-01-25 10:02:00,11.1,0.0,30.09,South,183,6.3,6.3,0,0.00,,---,0.00,VWS V14.01,2013-01-25 16:02:00,
2013-01-25 10:07:00,11.1,0.0,30.09,South,185,6.3,6.3,0,0.00,,---,0.00,VWS V14.01,2013-01-25 16:07:00,
2013-01-25 10:12:00,11.1,0.0,30.09,South,183,4.5,6.3,0,0.00,,---,0.00,VWS V14.01,2013-01-25 16:12:00,
2013-01-25 10:17:00,11.1,0.0,30.09,SW,216,5.4,5.4,0,0.00,,---,0.00,VWS V14.01,2013-01-25 16:17:00,
2013-01-25 10:22:00,11.1,0.0,30.09,South,181,4.5,12.5,0,0.00,,---,0.00,VWS V14.01,2013-01-25 16:22:00,
2013-01-25 10:27:00,11.1,0.0,30.09,SSW,200,0.0,0.0,0,0.00,,---,0.00,VWS V14.01,2013-01-25 16:27:00,
2013-01-25 10:32:00,11.1,0.0,30.09,SW,231,5.4,8.1,0,0.00,,---,0.00,VWS V14.01,2013-01-25 16:32:00,
2013-01-25 10:37:00,11.1,0.0,30.09,South,188,8.1,10.7,0,0.00,,---,0.00,VWS V14.01,2013-01-25 16:37:00,
2013-01-25 10:42:00,11.1,0.0,30.06,SW,217,10.7,10.7,0,0.00,,---,0.00,VWS V14.01,2013-01-25 16:42:00,
2013-01-25 10:47:00,11.1,0.0,30.06,SSW,197,5.4,12.5,0,0.00,,---,0.00,VWS V14.01,2013-01-25 16:47:00,
2013-01-25 10:52:00,11.1,0.0,30.06,South,188,8.1,8.1,0,0.00,,---,0.00,VWS V14.01,2013-01-25 16:52:00,
2013-01-25 10:57:00,11.1,0.0,30.06,SSW,199,6.3,6.3,0,0.00,,---,0.00,VWS V14.01,2013-01-25 16:57:00,
2013-01-25 11:02:00,11.1,0.0,30.06,SW,219,11.6,11.6,0,0.00,,---,0.00,VWS V14.01,2013-01-25 17:02:00,
2013-01-25 11:07:00,11.1,0.0,30.06,WSW,240,8.1,11.6,0,0.00,,---,0.00,VWS V14.01,2013-01-25 17:07:00,
2013-01-25 11:12:00,11.1,0.0,30.06,SSW,198,11.6,11.6,0,0.00,,---,0.00,VWS V14.01,2013-01-25 17:12:00,
2013-01-25 11:17:00,11.1,0.0,30.06,SSW,205,16.6,16.6,0,0.00,,---,0.00,VWS V14.01,2013-01-25 17:17:00,
2013-01-25 11:22:00,11.1,0.0,30.06,SSW,212,10.7,10.7,0,0.00,,---,0.00,VWS V14.01,2013-01-25 17:22:00,
2013-01-25 11:27:00,11.1,0.0,30.06,SSW,204,10.7,13.4,0,0.00,,---,0.00,VWS V14.01,2013-01-25 17:27:00,
2013-01-25 11:32:00,11.1,0.0,30.06,SW,214,10.7,11.6,0,0.00,,---,0.00,VWS V14.01,2013-01-25 17:32:00,
2013-01-25 11:37:00,11.1,0.0,30.06,SW,216,9.8,11.6,0,0.00,,---,0.00,VWS V14.01,2013-01-25 17:37:00,
2013-01-25 11:42:00,11.1,0.0,30.03,SW,236,10.7,15.2,0,0.00,,---,0.00,VWS V14.01,2013-01-25 17:42:00,
2013-01-25 11:47:00,11.1,0.0,30.03,SSE,160,19.2,19.2,0,0.00,,---,0.00,VWS V14.01,2013-01-25 17:47:00,
2013-01-25 11:52:00,11.1,0.0,30.03,SW,215,10.7,10.7,0,0.00,,---,0.00,VWS V14.01,2013-01-25 17:52:00,
2013-01-25 11:57:00,11.1,0.0,30.03,SW,228,10.7,11.6,0,0.00,,---,0.00,VWS V14.01,2013-01-25 17:57:00,
2013-01-25 12:02:00,11.1,0.0,30.03,SSW,196,9.8,9.8,0,0.00,,---,0.00,VWS V14.01,2013-01-25 18:02:00,
2013-01-25 12:07:00,11.1,0.0,30.03,SW,233,12.5,12.5,0,0.00,,---,0.00,VWS V14.01,2013-01-25 18:07:00,
2013-01-25 12:12:00,11.1,0.0,30.03,SSW,200,10.7,14.3,0,0.00,,---,0.00,VWS V14.01,2013-01-25 18:12:00,
2013-01-25 12:17:00,11.1,0.0,30.03,SSW,207,5.4,17.4,0,0.00,,---,0.00,VWS V14.01,2013-01-25 18:17:00,
2013-01-25 12:22:00,11.1,0.0,30.03,SW,233,12.5,16.6,0,0.00,,---,0.00,VWS V14.01,2013-01-25 18:22:00,
2013-01-25 12:27:00,11.1,0.0,30.00,SSW,192,12.5,12.5,0,0.00,,---,0.00,VWS V14.01,2013-01-25 18:27:00,
2013-01-25 12:32:00,11.1,0.0,30.00,SW,219,10.7,16.6,0,0.00,,---,0.00,VWS V14.01,2013-01-25 18:32:00,
2013-01-25 12:37:00,11.1,0.0,30.00,SSW,195,8.1,12.5,0,0.00,,---,0.00,VWS V14.01,2013-01-25 18:37:00,
2013-01-25 12:42:00,11.1,0.0,30.00,SW,228,12.5,12.5,0,0.00,,---,0.00,VWS V14.01,2013-01-25 18:42:00,
2013-01-25 12:47:00,11.1,0.0,30.00,SW,229,16.6,16.6,0,0.00,,---,0.00,VWS V14.01,2013-01-25 18:47:00,
2013-01-25 12:52:00,11.1,0.0,30.00,SW,229,16.6,16.6,0,0.00,,---,0.00,VWS V14.01,2013-01-25 18:52:00,
2013-01-25 12:57:00,11.1,0.0,30.00,WSW,239,6.3,11.6,0,0.00,,---,0.00,VWS V14.01,2013-01-25 18:57:00,
2013-01-25 13:02:00,11.1,0.0,30.00,SW,217,16.1,17.4,0,0.00,,---,0.00,VWS V14.01,2013-01-25 19:02:00,
2013-01-25 13:07:00,11.1,0.0,30.00,SW,229,11.6,16.6,0,0.00,,---,0.00,VWS V14.01,2013-01-25 19:07:00,
2013-01-25 13:12:00,11.1,0.0,29.97,SW,215,12.5,19.2,0,0.00,,---,0.00,VWS V14.01,2013-01-25 19:12:00,
2013-01-25 13:17:00,11.1,0.0,29.97,SW,230,10.7,12.5,0,0.00,,---,0.00,VWS V14.01,2013-01-25 19:17:00,
2013-01-25 13:22:00,11.1,0.0,29.97,SW,227,10.7,11.6,0,0.00,,---,0.00,VWS V14.01,2013-01-25 19:22:00,
2013-01-25 13:27:00,11.1,0.0,29.97,SW,233,12.5,16.1,0,0.00,,---,0.00,VWS V14.01,2013-01-25 19:27:00,
2013-01-25 13:32:00,11.1,0.0,29.97,SSE,150,11.6,11.6,0,0.00,,---,0.00,VWS V14.01,2013-01-25 19:32:00,
2013-01-25 13:37:00,11.1,0.0,29.97,SSW,203,10.7,20.1,0,0.00,,---,0.00,VWS V14.01,2013-01-25 19:37:00,
2013-01-25 13:42:00,11.1,0.0,29.97,SW,226,12.5,16.1,0,0.00,,---,0.00,VWS V14.01,2013-01-25 19:42:00,
2013-01-25 13:47:00,11.1,0.0,29.97,WSW,238,10.7,12.5,0,0.00,,---,0.00,VWS V14.01,2013-01-25 19:47:00,
2013-01-25 13:52:00,11.1,0.0,29.97,WSW,241,12.5,25.5,0,0.00,,---,0.00,VWS V14.01,2013-01-25 19:52:00,
2013-01-25 13:57:00,11.1,0.0,29.97,SW,216,16.6,19.2,0,0.00,,---,0.00,VWS V14.01,2013-01-25 19:57:00,
2013-01-25 14:02:00,11.1,0.0,29.97,SSW,202,11.6,11.6,0,0.00,,---,0.00,VWS V14.01,2013-01-25 20:02:00,
2013-01-25 14:07:00,11.1,0.0,29.97,SW,229,12.5,21.0,0,0.00,,---,0.00,VWS V14.01,2013-01-25 20:07:00,
2013-01-25 14:12:00,11.1,0.0,29.97,SW,231,16.1,16.1,0,0.00,,---,0.00,VWS V14.01,2013-01-25 20:12:00,
2013-01-25 14:17:00,11.1,0.0,29.97,SSW,212,12.5,16.1,0,0.00,,---,0.00,VWS V14.01,2013-01-25 20:17:00,
2013-01-25 14:22:00,11.1,0.0,29.97,SW,222,16.1,21.9,0,0.00,,---,0.00,VWS V14.01,2013-01-25 20:22:00,
2013-01-25 14:27:00,11.1,0.0,29.97,WSW,237,10.7,16.1,0,0.00,,---,0.00,VWS V14.01,2013-01-25 20:27:00,
2013-01-25 14:32:00,11.1,0.0,29.97,SW,234,10.7,16.6,0,0.00,,---,0.00,VWS V14.01,2013-01-25 20:32:00,
2013-01-25 14:37:00,11.1,0.0,29.97,SW,219,11.6,16.1,0,0.00,,---,0.00,VWS V14.01,2013-01-25 20:37:00,
2013-01-25 14:42:00,11.1,0.0,29.97,SW,236,16.1,16.1,0,0.00,,---,0.00,VWS V14.01,2013-01-25 20:42:00,
2013-01-25 14:47:00,11.1,0.0,29.97,West,268,10.7,16.1,0,0.00,,---,0.00,VWS V14.01,2013-01-25 20:47:00,
2013-01-25 14:52:00,11.1,0.0,29.97,SSW,207,13.4,17.4,0,0.00,,---,0.00,VWS V14.01,2013-01-25 20:52:00,
2013-01-25 14:57:00,11.1,0.0,29.97,SW,214,15.2,15.2,0,0.00,,---,0.00,VWS V14.01,2013-01-25 20:57:00,
2013-01-25 15:02:00,11.1,0.0,29.97,SSW,203,7.2,19.2,0,0.00,,---,0.00,VWS V14.01,2013-01-25 21:02:00,
2013-01-25 15:07:00,11.1,0.0,29.97,SW,233,15.2,16.1,0,0.00,,---,0.00,VWS V14.01,2013-01-25 21:07:00,
2013-01-25 15:12:00,11.1,0.0,29.97,WSW,240,21.0,21.0,0,0.00,,---,0.00,VWS V14.01,2013-01-25 21:12:00,
2013-01-25 15:17:00,11.1,0.0,29.97,SSW,197,10.7,15.2,0,0.00,,---,0.00,VWS V14.01,2013-01-25 21:17:00,
2013-01-25 15:22:00,11.1,0.0,29.97,SW,232,16.1,17.4,0,0.00,,---,0.00,VWS V14.01,2013-01-25 21:22:00,
2013-01-25 15:27:00,11.1,0.0,29.97,SW,227,17.4,20.1,0,0.00,,---,0.00,VWS V14.01,2013-01-25 21:27:00,
2013-01-25 15:32:00,11.1,0.0,29.97,WSW,251,15.2,17.4,0,0.00,,---,0.00,VWS V14.01,2013-01-25 21:32:00,
2013-01-25 15:37:00,11.1,0.0,29.97,SW,232,16.1,16.1,0,0.00,,---,0.00,VWS V14.01,2013-01-25 21:37:00,
2013-01-25 15:42:00,11.1,0.0,29.97,WSW,238,8.1,15.2,0,0.00,,---,0.00,VWS V14.01,2013-01-25 21:42:00,
2013-01-25 15:47:00,11.1,0.0,29.97,WSW,237,15.2,16.1,0,0.00,,---,0.00,VWS V14.01,2013-01-25 21:47:00,
2013-01-25 15:52:00,11.1,0.0,29.97,WSW,245,11.6,12.5,0,0.00,,---,0.00,VWS V14.01,2013-01-25 21:52:00,
2013-01-25 15:57:00,11.1,0.0,29.97,WSW,237,11.6,11.6,0,0.00,,---,0.00,VWS V14.01,2013-01-25 21:57:00,
2013-01-25 16:02:00,11.1,0.0,29.97,SW,215,15.2,16.1,0,0.00,,---,0.00,VWS V14.01,2013-01-25 22:02:00,
2013-01-25 16:07:00,11.1,0.0,29.97,WSW,258,16.6,19.2,0,0.00,,---,0.00,VWS V14.01,2013-01-25 22:07:00,
2013-01-25 16:12:00,34.5,-2.4,29.97,WSW,245,16.6,20.1,20,0.00,,---,0.00,VWS V14.01,2013-01-25 22:12:00,
2013-01-25 16:17:00,34.5,-2.4,29.97,West,261,17.4,17.4,20,0.00,,---,0.00,VWS V14.01,2013-01-25 22:17:00,
2013-01-25 16:22:00,34.2,-2.7,29.97,WSW,242,12.5,12.5,20,0.00,,---,0.00,VWS V14.01,2013-01-25 22:22:00,
2013-01-25 16:27:00,34.2,-2.7,29.97,SW,234,9.8,20.1,20,0.00,,---,0.00,VWS V14.01,2013-01-25 22:27:00,
2013-01-25 16:32:00,34.2,-2.7,29.97,WSW,241,10.7,16.6,20,0.00,,---,0.00,VWS V14.01,2013-01-25 22:32:00,
2013-01-25 16:37:00,33.8,-3.0,29.97,WSW,240,9.8,12.5,20,0.00,,---,0.00,VWS V14.01,2013-01-25 22:37:00,
2013-01-25 16:42:00,33.6,-3.2,29.97,WSW,238,12.5,16.1,20,0.00,,---,0.00,VWS V14.01,2013-01-25 22:42:00,
2013-01-25 16:47:00,33.1,-3.6,29.97,SW,230,11.6,12.5,20,0.00,,---,0.00,VWS V14.01,2013-01-25 22:47:00,
2013-01-25 16:52:00,33.1,-3.6,29.97,West,267,8.1,12.5,20,0.00,,---,0.00,VWS V14.01,2013-01-25 22:52:00,
2013-01-25 16:57:00,32.7,-3.9,30.00,WSW,244,8.1,11.6,20,0.00,,---,0.00,VWS V14.01,2013-01-25 22:57:00,
2013-01-25 17:02:00,32.7,-3.9,30.00,WSW,244,12.5,16.1,20,0.00,,---,0.00,VWS V14.01,2013-01-25 23:02:00,
2013-01-25 17:07:00,32.2,-4.4,30.00,West,261,12.5,12.5,20,0.00,,---,0.00,VWS V14.01,2013-01-25 23:07:00,
2013-01-25 17:12:00,31.8,-4.7,30.00,SW,223,12.5,12.5,20,0.00,,---,0.00,VWS V14.01,2013-01-25 23:12:00,
2013-01-25 17:17:00,31.6,-4.8,30.00,West,269,12.5,12.5,20,0.00,,---,0.00,VWS V14.01,2013-01-25 23:17:00,
2013-01-25 17:22:00,31.5,-5.0,30.00,WSW,246,11.6,12.5,20,0.00,,---,0.00,VWS V14.01,2013-01-25 23:22:00,
2013-01-25 17:27:00,31.6,-4.8,30.00,WSW,241,12.5,12.5,20,0.00,,---,0.00,VWS V14.01,2013-01-25 23:27:00,
2013-01-25 17:32:00,31.6,-4.8,30.00,West,270,10.7,11.6,20,0.00,,---,0.00,VWS V14.01,2013-01-25 23:32:00,
2013-01-25 17:37:00,31.5,-5.0,30.00,WSW,257,7.2,12.5,20,0.00,,---,0.00,VWS V14.01,2013-01-25 23:37:00,
2013-01-25 17:42:00,31.1,-5.3,30.00,West,274,8.1,10.7,20,0.00,,---,0.00,VWS V14.01,2013-01-25 23:42:00,
2013-01-25 17:47:00,31.8,-4.7,30.00,WNW,283,16.1,16.1,20,0.00,,---,0.00,VWS V14.01,2013-01-25 23:47:00,
2013-01-25 17:52:00,31.8,-4.7,30.00,West,280,10.7,16.1,20,0.00,,---,0.00,VWS V14.01,2013-01-25 23:52:00,
2013-01-25 17:57:00,31.3,-5.1,30.03,NNW,348,21.9,21.9,20,0.00,,---,0.00,VWS V14.01,2013-01-25 23:57:00,
2013-01-25 18:02:00,30.7,-5.6,30.03,WNW,291,16.1,16.1,20,0.00,,---,0.00,VWS V14.01,2013-01-26 00:02:00,
2013-01-25 18:07:00,30.2,-6.0,30.03,WNW,301,12.5,12.5,20,0.00,,---,0.00,VWS V14.01,2013-01-26 00:07:00,
2013-01-25 18:12:00,30.2,-6.0,30.03,West,270,11.6,12.5,20,0.00,,---,0.00,VWS V14.01,2013-01-26 00:12:00,
2013-01-25 18:16:00,29.5,-6.6,30.03,West,280,11.6,12.5,20,0.00,,---,0.00,VWS V14.01,2013-01-26 00:16:00,
2013-01-25 18:21:00,28.9,-7.1,30.03,West,267,8.1,12.5,20,0.00,,---,0.00,VWS V14.01,2013-01-26 00:21:00,
2013-01-25 18:27:00,28.8,-7.2,30.06,WNW,293,10.7,10.7,20,0.00,,---,0.00,VWS V14.01,2013-01-26 00:27:00,
2013-01-25 18:32:00,28.4,-6.5,30.06,WNW,294,9.8,9.8,21,0.00,,---,0.00,VWS V14.01,2013-01-26 00:32:00,
2013-01-25 18:37:00,28.2,-6.7,30.06,WNW,284,11.6,11.6,21,0.00,,---,0.00,VWS V14.01,2013-01-26 00:37:00,
2013-01-25 18:42:00,28.4,-6.5,30.06,WNW,303,12.5,12.5,21,0.00,,---,0.00,VWS V14.01,2013-01-26 00:42:00,
2013-01-25 18:47:00,27.9,-7.0,30.06,West,272,7.2,10.7,21,0.00,,---,0.00,VWS V14.01,2013-01-26 00:47:00,
2013-01-25 18:51:00,27.7,-7.2,30.06,WNW,299,8.1,8.1,21,0.00,,---,0.00,VWS V14.01,2013-01-26 00:51:00,
2013-01-25 18:56:00,27.7,-5.3,30.06,WNW,283,11.6,11.6,23,0.00,,---,0.00,VWS V14.01,2013-01-26 00:56:00,
2013-01-25 19:01:00,27.3,-5.6,30.06,WNW,290,6.3,6.3,23,0.00,,---,0.00,VWS V14.01,2013-01-26 01:01:00,
2013-01-25 19:06:00,27.1,-5.7,30.06,WNW,285,7.2,8.1,23,0.00,,---,0.00,VWS V14.01,2013-01-26 01:06:00,
2013-01-25 19:11:00,26.4,-5.5,30.06,West,265,5.4,5.4,24,0.00,,---,0.00,VWS V14.01,2013-01-26 01:11:00,
2013-01-25 19:16:00,26.1,-5.8,30.06,WNW,287,0.0,0.0,24,0.00,,---,0.00,VWS V14.01,2013-01-26 01:16:00,
2013-01-25 19:21:00,25.9,-5.9,30.06,West,260,0.0,0.0,24,0.00,,---,0.00,VWS V14.01,2013-01-26 01:21:00,
2013-01-25 19:26:00,25.5,-6.2,30.06,WSW,256,0.0,0.0,24,0.00,,---,0.00,VWS V14.01,2013-01-26 01:26:00,
2013-01-25 19:31:00,25.0,-6.7,30.06,WSW,249,0.0,0.0,24,0.00,,---,0.00,VWS V14.01,2013-01-26 01:31:00,
2013-01-25 19:36:00,24.3,-7.3,30.06,WSW,248,0.0,0.0,24,0.00,,---,0.00,VWS V14.01,2013-01-26 01:36:00,
2013-01-25 19:41:00,23.9,-7.6,30.06,WSW,247,0.0,0.0,24,0.00,,---,0.00,VWS V14.01,2013-01-26 01:41:00,
2013-01-25 19:46:00,23.4,-8.1,30.06,WSW,247,0.0,0.0,24,0.00,,---,0.00,VWS V14.01,2013-01-26 01:46:00,
2013-01-25 19:51:00,23.2,-8.2,30.06,WSW,247,0.0,0.0,24,0.00,,---,0.00,VWS V14.01,2013-01-26 01:51:00,
2013-01-25 19:56:00,23.0,-7.6,30.06,WSW,247,0.0,0.0,25,0.00,,---,0.00,VWS V14.01,2013-01-26 01:56:00,
2013-01-25 20:01:00,23.4,-8.1,30.06,WSW,247,0.0,0.0,24,0.00,,---,0.00,VWS V14.01,2013-01-26 02:01:00,
2013-01-25 20:06:00,23.0,-6.0,30.06,WSW,247,0.0,0.0,27,0.00,,---,0.00,VWS V14.01,2013-01-26 02:06:00,
2013-01-25 20:11:00,23.5,-5.5,30.06,WSW,249,0.0,0.0,27,0.00,,---,0.00,VWS V14.01,2013-01-26 02:11:00,
2013-01-25 20:16:00,23.5,-5.5,30.06,WSW,255,6.3,6.3,27,0.00,,---,0.00,VWS V14.01,2013-01-26 02:16:00,
2013-01-25 20:21:00,23.5,-5.5,30.06,West,280,8.1,8.1,27,0.00,,---,0.00,VWS V14.01,2013-01-26 02:21:00,
2013-01-25 20:26:00,25.0,-6.7,30.06,West,279,8.1,11.6,24,0.00,,---,0.00,VWS V14.01,2013-01-26 02:26:00,
2013-01-25 20:31:00,24.6,-7.0,30.06,West,278,10.7,10.7,24,0.00,,---,0.00,VWS V14.01,2013-01-26 02:31:00,
2013-01-25 20:36:00,25.3,-6.4,30.06,West,281,10.7,10.7,24,0.00,,---,0.00,VWS V14.01,2013-01-26 02:36:00,
2013-01-25 20:41:00,25.5,-6.2,30.06,WNW,282,16.1,16.1,24,0.00,,---,0.00,VWS V14.01,2013-01-26 02:41:00,
2013-01-25 20:46:00,25.5,-6.2,30.06,West,267,11.6,11.6,24,0.00,,---,0.00,VWS V14.01,2013-01-26 02:46:00,
2013-01-25 20:51:00,25.5,-6.2,30.06,WSW,245,10.7,10.7,24,0.00,,---,0.00,VWS V14.01,2013-01-26 02:51:00,
2013-01-25 20:56:00,25.5,-6.2,30.06,West,260,9.8,11.6,24,0.00,,---,0.00,VWS V14.01,2013-01-26 02:56:00,
2013-01-25 21:01:00,25.5,-6.2,30.09,West,263,9.8,12.5,24,0.00,,---,0.00,VWS V14.01,2013-01-26 03:01:00,
2013-01-25 21:06:00,25.5,-6.2,30.09,WSW,243,12.5,12.5,24,0.00,,---,0.00,VWS V14.01,2013-01-26 03:06:00,
2013-01-25 21:11:00,25.5,-6.2,30.09,WSW,248,7.2,10.7,24,0.00,,---,0.00,VWS V14.01,2013-01-26 03:11:00,
2013-01-25 21:16:00,25.5,-6.2,30.09,WNW,290,12.5,12.5,24,0.00,,---,0.00,VWS V14.01,2013-01-26 03:16:00,
2013-01-25 21:21:00,25.5,-6.2,30.09,WNW,285,8.1,8.1,24,0.00,,---,0.00,VWS V14.01,2013-01-26 03:21:00,
2013-01-25 21:26:00,25.5,-6.2,30.09,WNW,292,11.6,11.6,24,0.00,,---,0.00,VWS V14.01,2013-01-26 03:26:00,
2013-01-25 21:31:00,25.5,-6.2,30.09,West,272,15.2,15.2,24,0.00,,---,0.00,VWS V14.01,2013-01-26 03:31:00,
2013-01-25 21:36:00,25.5,-6.2,30.09,West,265,8.1,10.7,24,0.00,,---,0.00,VWS V14.01,2013-01-26 03:36:00,
2013-01-25 21:41:00,23.9,-9.4,30.09,West,278,12.5,12.5,22,0.00,,---,0.00,VWS V14.01,2013-01-26 03:41:00,
2013-01-25 21:46:00,23.5,-9.7,30.09,WSW,242,9.8,12.5,22,0.00,,---,0.00,VWS V14.01,2013-01-26 03:46:00,
2013-01-25 21:51:00,23.2,-10.0,30.09,West,278,8.1,9.8,22,0.00,,---,0.00,VWS V14.01,2013-01-26 03:51:00,
2013-01-25 21:56:00,22.8,-10.3,30.09,WNW,291,10.7,10.7,22,0.00,,---,0.00,VWS V14.01,2013-01-26 03:56:00,
2013-01-25 22:01:00,22.8,-10.3,30.12,West,279,8.1,9.8,22,0.00,,---,0.00,VWS V14.01,2013-01-26 04:01:00,
2013-01-25 22:06:00,22.5,-10.6,30.12,West,280,8.1,8.1,22,0.00,,---,0.00,VWS V14.01,2013-01-26 04:06:00,
2013-01-25 22:11:00,22.3,-10.8,30.12,West,264,12.5,12.5,22,0.00,,---,0.00,VWS V14.01,2013-01-26 04:11:00,
2013-01-25 22:16:00,22.3,-10.8,30.12,WNW,284,11.6,11.6,22,0.00,,---,0.00,VWS V14.01,2013-01-26 04:16:00,
2013-01-25 22:21:00,22.1,-10.9,30.12,West,274,8.1,8.1,22,0.00,,---,0.00,VWS V14.01,2013-01-26 04:21:00,
2013-01-25 22:26:00,21.9,-11.1,30.12,West,263,8.1,8.1,22,0.00,,---,0.00,VWS V14.01,2013-01-26 04:26:00,
2013-01-25 22:31:00,21.9,-11.1,30.12,West,262,10.7,10.7,22,0.00,,---,0.00,VWS V14.01,2013-01-26 04:31:00,
2013-01-25 22:36:00,21.6,-11.4,30.12,WNW,303,5.4,8.1,22,0.00,,---,0.00,VWS V14.01,2013-01-26 04:36:00,
2013-01-25 22:41:00,21.7,-11.2,30.12,WNW,286,7.2,12.5,22,0.00,,---,0.00,VWS V14.01,2013-01-26 04:41:00,
2013-01-25 22:46:00,21.4,-11.5,30.12,West,266,8.1,12.5,22,0.00,,---,0.00,VWS V14.01,2013-01-26 04:46:00,
2013-01-25 22:51:00,21.4,-11.5,30.12,West,276,8.1,10.7,22,0.00,,---,0.00,VWS V14.01,2013-01-26 04:51:00,
2013-01-25 22:56:00,21.2,-11.7,30.12,WNW,288,8.1,10.7,22,0.00,,---,0.00,VWS V14.01,2013-01-26 04:56:00,
2013-01-25 23:00:00,21.0,-11.9,30.12,West,271,8.1,12.5,22,0.00,,---,0.00,VWS V14.01,2013-01-26 05:00:00,
2013-01-25 23:01:00,20.8,-12.0,30.12,West,272,11.6,11.6,22,0.00,,---,0.00,VWS V14.01,2013-01-26 05:01:00,
2013-01-25 23:06:00,20.5,-12.3,30.12,WNW,288,7.2,8.1,22,0.00,,---,0.00,VWS V14.01,2013-01-26 05:06:00,
2013-01-25 23:11:00,20.7,-12.2,30.12,WNW,286,8.1,10.7,22,0.00,,---,0.00,VWS V14.01,2013-01-26 05:11:00,
2013-01-25 23:16:00,20.7,-12.2,30.15,West,261,10.7,12.5,22,0.00,,---,0.00,VWS V14.01,2013-01-26 05:16:00,
2013-01-25 23:21:00,20.5,-12.3,30.15,WNW,290,8.1,11.6,22,0.00,,---,0.00,VWS V14.01,2013-01-26 05:21:00,
2013-01-25 23:26:00,20.3,-12.5,30.15,West,274,7.2,11.6,22,0.00,,---,0.00,VWS V14.01,2013-01-26 05:26:00,
2013-01-25 23:31:00,20.3,-12.5,30.15,WNW,291,7.2,11.6,22,0.00,,---,0.00,VWS V14.01,2013-01-26 05:31:00,
2013-01-25 23:36:00,20.1,-12.6,30.15,WNW,290,8.1,9.8,22,0.00,,---,0.00,VWS V14.01,2013-01-26 05:36:00,
2013-01-25 23:41:00,20.1,-12.6,30.15,WNW,292,10.7,10.7,22,0.00,,---,0.00,VWS V14.01,2013-01-26 05:41:00,
2013-01-25 23:46:00,20.1,-12.6,30.15,NW,321,11.6,11.6,22,0.00,,---,0.00,VWS V14.01,2013-01-26 05:46:00,
2013-01-25 23:51:00,20.1,-12.6,30.15,WNW,297,8.1,8.1,22,0.00,,---,0.00,VWS V14.01,2013-01-26 05:51:00,
2013-01-25 23:56:00,20.1,-12.6,30.15,West,280,7.2,11.6,22,0.00,,---,0.00,VWS V14.01,2013-01-26 05:56:00,